GW0449 Weather Reports


Display with metric or nautical units.
time (UTC)temp
F
wind
direction
speed
MPH
gust
MPH
rain 1hr
in
rain 24hr
in
rain mn
in
humidity
%
barometer
mb
20230129215102 2 36 4.0 9.0 0.00 0.00 0.00 85 1010.5
20230129213104 3 18 7.0 9.0 0.00 0.00 0.00 85 1009.8
20230129211102 3 19 6.0 10.0 0.00 0.00 0.00 85 1009.8
20230129205102 3 19 4.0 10.0 0.00 0.00 0.00 85 1009.8
20230129203601 4 55 4.0 6.0 0.00 0.00 0.00 86 1009.5
20230129201606 4 359 7.0 10.0 0.00 0.00 0.00 86 1009.8
20230129195601 3 9 8.0 10.0 0.00 0.00 0.00 86 1009.8
20230129193602 3 353 3.0 9.0 0.00 0.00 0.00 86 1010.2
20230129191607 4 353 7.0 7.0 0.00 0.00 0.00 87 1009.8
20230129185601 3 29 6.0 8.0 0.00 0.00 0.00 86 1010.5
20230129183601 4 51 8.0 8.0 0.00 0.00 0.00 87 1010.5
20230129181608 3 354 7.0 8.0 0.00 0.00 0.00 87 1010.8
20230129175602 3 3 4.0 9.0 0.00 0.00 0.00 86 1010.8
20230129173602 4 342 7.0 8.0 0.00 0.00 0.00 87 1010.8
20230129171701 4 347 6.0 8.0 0.00 0.00 0.00 87 1010.8
20230129170102 3 30 7.0 7.0 0.00 0.00 0.00 87 1010.8
20230129164102 4 27 3.0 7.0 0.00 0.00 0.00 87 1010.8
20230129162102 4 359 6.0 9.0 0.00 0.00 0.00 87 1010.5
20230129160202 4 5 5.0 6.0 0.00 0.00 0.00 87 1010.5
20230129154602 4 328 5.0 7.0 0.00 0.00 0.00 87 1010.5
20230129152602 4 18 3.0 5.0 0.00 0.00 0.00 87 1010.5
20230129150601 4 9 4.0 6.0 0.00 0.00 0.00 87 1010.2
20230129144602 4 37 3.0 7.0 0.00 0.00 0.00 87 1010.2
20230129143101 4 349 3.0 8.0 0.00 0.00 0.00 87 1009.8
20230129141102 5 22 3.0 8.0 0.00 0.00 0.00 87 1009.5
20230129135101 5 355 4.0 8.0 0.00 0.00 0.00 88 1009.1
20230129133102 6 348 7.0 7.0 0.00 0.00 0.00 88 1009.1
20230129131102 6 346 4.0 7.0 0.00 0.00 0.00 88 1009.1
20230129125601 6 353 3.0 6.0 0.00 0.00 0.00 88 1009.1
20230129123602 6 323 3.0 6.0 0.00 0.00 0.00 88 1008.8
20230129121602 6 2 4.0 6.0 0.00 0.00 0.00 88 1009.1
20230129115601 7 14 4.0 6.0 0.00 0.00 0.00 88 1009.1
20230129113602 7 1 3.0 5.0 0.00 0.00 0.00 88 1009.1
20230129111602 7 47 2.0 4.0 0.00 0.00 0.00 88 1009.1
20230129105602 7 16 0.0 5.0 0.00 0.00 0.00 88 1009.1
20230129103602 8 16 4.0 4.0 0.00 0.00 0.00 88 1009.5
20230129102102 8 19 4.0 4.0 0.00 0.00 0.00 88 1009.5
20230129100102 8 23 4.0 4.0 0.00 0.00 0.00 88 1009.5
20230129094102 8 39 3.0 5.0 0.00 0.00 0.00 88 1009.8
20230129092101 8 68 1.0 5.0 0.00 0.00 0.00 88 1010.2
20230129090113 9 351 4.0 5.0 0.00 0.00 0.00 88 1010.2
20230129084112 9 11 3.0 5.0 0.00 0.00 0.00 89 1010.2
20230129082605 9 89 2.0 4.0 0.00 0.00 0.00 89 1010.2
20230129081103 9 63 0.0 3.0 0.00 0.00 0.00 89 1010.5
20230129075601 9 72 0.0 3.0 0.00 0.00 0.00 89 1010.5
20230129073601 9 64 3.0 4.0 0.00 0.00 0.00 89 1010.8
20230129071602 10 77 3.0 5.0 0.00 0.00 0.00 89 1010.8
20230129070102 10 37 1.0 3.0 0.00 0.00 0.00 89 1010.8
20230129064112 10 42 3.0 5.0 0.00 0.00 0.00 89 1011.2
20230129062202 10 79 3.0 6.0 0.00 0.00 0.00 89 1011.5
20230129060602 10 69 4.0 8.0 0.00 0.00 0.00 89 1011.5
20230129054702 11 61 5.0 8.0 0.00 0.00 0.00 89 1011.9
20230129053102 11 346 3.0 9.0 0.00 0.00 0.00 89 1012.2
20230129051102 12 25 4.0 9.0 0.00 0.00 0.00 90 1011.9
20230129045116 13 72 2.0 7.0 0.00 0.00 0.00 90 1011.5
20230129043104 13 38 5.0 9.0 0.00 0.00 0.00 90 1011.5
20230129041102 14 21 5.0 8.0 0.00 0.00 0.00 90 1011.5
20230129035602 15 10 3.0 10.0 0.00 0.00 0.00 90 1011.2
20230129033602 15 53 7.0 10.0 0.00 0.00 0.00 90 1010.8
20230129031604 16 1 11.0 14.0 0.00 0.00 0.00 90 1010.5
20230129025612 17 12 10.0 10.0 0.00 0.00 0.00 90 1010.2
20230129023617 18 8 7.0 10.0 0.00 0.00 0.00 89 1009.5
20230129021605 20 29 5.0 8.0 0.00 0.00 0.00 88 1008.8
20230129015602 21 61 0.0 6.0 0.00 0.00 0.00 88 1008.5
20230129013602 21 38 1.0 6.0 0.00 0.00 0.00 88 1008.1
20230129011602 21 27 4.0 7.0 0.00 0.00 0.00 87 1007.8
20230129005602 22 42 5.0 10.0 0.00 0.00 0.00 87 1007.5
20230129003606 22 64 8.0 9.0 0.00 0.00 0.00 86 1006.4
20230129001608 24 47 5.0 9.0 0.00 0.00 0.00 85 1006.1
20230129000102 25 84 2.0 7.0 0.00 0.00 0.00 85 1005.8
20230128234602 25 31 5.0 7.0 0.00 0.00 0.00 83 1005.4
20230128232601 26 53 7.0 8.0 0.00 0.00 0.00 81 1005.4
20230128230602 27 23 8.0 10.0 0.00 0.00 0.00 77 1005.1
20230128224603 28 42 4.0 8.0 0.00 0.00 0.00 76 1004.4
20230128222613 29 20 5.0 10.0 0.00 0.00 0.00 76 1004.1
20230128221102 30 36 8.0 11.0 0.00 0.00 0.00 70 1004.1